| time (UTC) | temp F | wind direction | speed MPH | gust MPH | rain 1hr in | rain 24hr in | rain mn in | humidity % | barometer mb |
| 20260904005018 | 64 | 310 | 0.0 | 1.0 | 0.00 | 0.19 | 0.19 | 92 | 1012.0 |
| 20260904004057 | 64 | 261 | 0.0 | 1.0 | 0.00 | 0.19 | 0.19 | 92 | 1012.0 |
| 20260904003017 | 64 | 2 | 0.0 | 1.0 | 0.00 | 0.19 | 0.19 | 92 | 1011.9 |
| 20260904002019 | 64 | 7 | 0.0 | 1.0 | 0.00 | 0.19 | 0.19 | 92 | 1011.9 |
| 20260904001019 | 64 | 304 | 0.0 | 1.0 | 0.00 | 0.19 | 0.19 | 92 | 1011.7 |
| 20260904000019 | 65 | 338 | 0.0 | 0.0 | 0.00 | 0.19 | 0.19 | 91 | 1011.8 |
| 20260903235017 | 65 | 355 | 0.0 | 1.0 | 0.00 | 0.19 | 0.19 | 91 | 1012.0 |
| 20260903234018 | 65 | 339 | 0.0 | 2.0 | 0.00 | 0.19 | 0.19 | 91 | 1011.6 |
| 20260903233017 | 65 | 250 | 0.0 | 1.0 | 0.00 | 0.19 | 0.19 | 91 | 1011.7 |
| 20260903232018 | 65 | 272 | 0.0 | 0.0 | 0.00 | 0.19 | 0.19 | 90 | 1011.9 |
| 20260903231018 | 66 | 218 | 0.0 | 1.0 | 0.00 | 0.19 | 0.19 | 90 | 1012.0 |
| 20260903230059 | 66 | 0.0 | 0.0 | 0.00 | 0.19 | 0.19 | 90 | 1011.9 | |
| 20260903225018 | 66 | 0.0 | 0.0 | 0.00 | 0.19 | 0.19 | 90 | 1011.9 | |
| 20260903224019 | 66 | 252 | 0.0 | 1.0 | 0.00 | 0.19 | 0.19 | 89 | 1012.2 |
| 20260903223039 | 66 | 248 | 0.0 | 2.0 | 0.00 | 0.19 | 0.19 | 89 | 1012.2 |
| 20260903222039 | 67 | 224 | 0.0 | 2.0 | 0.00 | 0.19 | 0.19 | 88 | 1012.2 |
| 20260903221019 | 67 | 214 | 0.0 | 2.0 | 0.00 | 0.19 | 0.19 | 88 | 1012.2 |
| 20260903220039 | 67 | 208 | 1.0 | 2.0 | 0.00 | 0.19 | 0.19 | 88 | 1012.3 |
| 20260903215016 | 68 | 271 | 0.0 | 1.0 | 0.00 | 0.19 | 0.19 | 87 | 1012.3 |
| 20260903214019 | 68 | 241 | 0.0 | 1.0 | 0.00 | 0.19 | 0.19 | 87 | 1012.3 |
| 20260903213020 | 68 | 241 | 1.0 | 3.0 | 0.00 | 0.19 | 0.19 | 86 | 1012.2 |
| 20260903212020 | 69 | 295 | 1.0 | 3.0 | 0.00 | 0.19 | 0.19 | 85 | 1012.2 |
| 20260903211020 | 69 | 315 | 1.0 | 2.0 | 0.00 | 0.19 | 0.19 | 85 | 1012.3 |
| 20260903210017 | 68 | 230 | 0.0 | 2.0 | 0.00 | 0.19 | 0.19 | 88 | 1012.3 |
| 20260903205017 | 68 | 350 | 0.0 | 2.0 | 0.00 | 0.19 | 0.19 | 88 | 1012.3 |
| 20260903204017 | 67 | 340 | 0.0 | 1.0 | 0.00 | 0.19 | 0.19 | 88 | 1012.5 |
| 20260903203018 | 67 | 5 | 0.0 | 2.0 | 0.00 | 0.19 | 0.19 | 88 | 1012.5 |
| 20260903202018 | 67 | 357 | 0.0 | 2.0 | 0.00 | 0.19 | 0.19 | 87 | 1012.7 |
| 20260903201018 | 68 | 3 | 1.0 | 2.0 | 0.00 | 0.19 | 0.19 | 87 | 1012.7 |
| 20260903200018 | 68 | 1 | 0.0 | 3.0 | 0.00 | 0.19 | 0.19 | 87 | 1012.6 |
| 20260903195019 | 68 | 2 | 1.0 | 3.0 | 0.00 | 0.19 | 0.19 | 87 | 1012.5 |
| 20260903194039 | 68 | 357 | 1.0 | 3.0 | 0.00 | 0.19 | 0.19 | 87 | 1012.7 |
| 20260903193039 | 68 | 348 | 0.0 | 2.0 | 0.00 | 0.19 | 0.19 | 87 | 1012.7 |
| 20260903192019 | 69 | 251 | 0.0 | 2.0 | 0.00 | 0.19 | 0.19 | 87 | 1012.9 |
| 20260903191019 | 68 | 340 | 0.0 | 2.0 | 0.00 | 0.19 | 0.19 | 88 | 1013.0 |
| 20260903190039 | 68 | 358 | 0.0 | 2.0 | 0.00 | 0.19 | 0.19 | 87 | 1013.1 |
| 20260903185039 | 69 | 357 | 1.0 | 3.0 | 0.00 | 0.19 | 0.19 | 86 | 1013.1 |
| 20260903184020 | 69 | 3 | 0.0 | 2.0 | 0.00 | 0.19 | 0.19 | 87 | 1013.2 |
| 20260903183019 | 68 | 357 | 1.0 | 3.0 | 0.00 | 0.19 | 0.19 | 88 | 1013.3 |
| 20260903182017 | 68 | 360 | 1.0 | 4.0 | 0.00 | 0.19 | 0.19 | 86 | 1013.5 |
| 20260903181017 | 68 | 348 | 1.0 | 2.0 | 0.00 | 0.19 | 0.19 | 86 | 1013.5 |
| 20260903180017 | 69 | 2 | 0.0 | 2.0 | 0.00 | 0.19 | 0.19 | 88 | 1013.4 |
| 20260903175020 | 68 | 68 | 0.0 | 2.0 | 0.00 | 0.19 | 0.19 | 88 | 1013.3 |
| 20260903174020 | 68 | 356 | 0.0 | 2.0 | 0.00 | 0.19 | 0.19 | 90 | 1013.3 |
| 20260903173018 | 67 | 319 | 0.0 | 2.0 | 0.00 | 0.19 | 0.19 | 91 | 1013.3 |
| 20260903172038 | 67 | 329 | 0.0 | 2.0 | 0.00 | 0.19 | 0.19 | 91 | 1013.5 |
| 20260903171018 | 66 | 359 | 0.0 | 2.0 | 0.00 | 0.19 | 0.19 | 92 | 1013.5 |
| 20260903170018 | 66 | 223 | 0.0 | 5.0 | 0.00 | 0.19 | 0.19 | 92 | 1013.4 |
| 20260903165018 | 66 | 345 | 0.0 | 1.0 | 0.00 | 0.19 | 0.19 | 93 | 1013.5 |
| 20260903164018 | 65 | 275 | 0.0 | 3.0 | 0.00 | 0.19 | 0.19 | 93 | 1013.6 |
| 20260903163019 | 65 | 9 | 0.0 | 2.0 | 0.00 | 0.19 | 0.19 | 93 | 1013.6 |
| 20260903162019 | 65 | 337 | 0.0 | 1.0 | 0.00 | 0.19 | 0.19 | 93 | 1013.8 |
| 20260903161019 | 65 | 222 | 0.0 | 2.0 | 0.00 | 0.19 | 0.19 | 93 | 1014.0 |
| 20260903160019 | 65 | 8 | 0.0 | 2.0 | 0.00 | 0.19 | 0.19 | 93 | 1014.1 |
| 20260903155019 | 65 | 332 | 0.0 | 2.0 | 0.00 | 0.19 | 0.19 | 94 | 1014.2 |
| 20260903154040 | 65 | 20 | 0.0 | 3.0 | 0.00 | 0.19 | 0.19 | 94 | 1014.2 |
| 20260903153017 | 65 | 19 | 0.0 | 2.0 | 0.00 | 0.19 | 0.19 | 94 | 1014.4 |
| 20260903152020 | 65 | 4 | 0.0 | 2.0 | 0.00 | 0.19 | 0.19 | 94 | 1014.5 |
| 20260903151020 | 65 | 151 | 0.0 | 2.0 | 0.00 | 0.19 | 0.19 | 94 | 1014.6 |
| 20260903150040 | 65 | 344 | 0.0 | 2.0 | 0.00 | 0.19 | 0.19 | 94 | 1014.7 |
| 20260903145017 | 64 | 336 | 0.0 | 3.0 | 0.00 | 0.19 | 0.19 | 94 | 1014.9 |
| 20260903144017 | 64 | 301 | 0.0 | 2.0 | 0.00 | 0.19 | 0.19 | 94 | 1015.0 |
| 20260903143018 | 64 | 317 | 0.0 | 1.0 | 0.00 | 0.19 | 0.19 | 94 | 1015.0 |
| 20260903142017 | 64 | 333 | 0.0 | 2.0 | 0.00 | 0.19 | 0.19 | 94 | 1015.1 |
| 20260903141018 | 64 | 298 | 0.0 | 2.0 | 0.00 | 0.19 | 0.19 | 94 | 1015.0 |
| 20260903140021 | 64 | 261 | 0.0 | 3.0 | 0.00 | 0.19 | 0.19 | 94 | 1015.0 |
| 20260903135019 | 64 | 312 | 0.0 | 4.0 | 0.00 | 0.19 | 0.19 | 94 | 1015.2 |
| 20260903134018 | 63 | 287 | 0.0 | 1.0 | 0.00 | 0.19 | 0.19 | 94 | 1015.2 |
| 20260903133018 | 63 | 213 | 0.0 | 2.0 | 0.00 | 0.19 | 0.19 | 94 | 1015.1 |
| 20260903132019 | 63 | 3 | 0.0 | 1.0 | 0.00 | 0.19 | 0.19 | 94 | 1015.2 |
| 20260903131019 | 63 | 320 | 0.0 | 1.0 | 0.00 | 0.19 | 0.19 | 94 | 1015.3 |
| 20260903130019 | 63 | 192 | 0.0 | 3.0 | 0.00 | 0.19 | 0.19 | 94 | 1015.4 |
| 20260903125036 | 63 | 292 | 0.0 | 2.0 | 0.00 | 0.19 | 0.19 | 94 | 1015.6 |
| 20260903124019 | 63 | 196 | 0.0 | 3.0 | 0.00 | 0.19 | 0.19 | 94 | 1015.6 |
| 20260903123019 | 63 | 284 | 0.0 | 3.0 | 0.00 | 0.19 | 0.19 | 94 | 1015.8 |
| 20260903122020 | 63 | 212 | 1.0 | 4.0 | 0.00 | 0.19 | 0.19 | 94 | 1015.9 |
| 20260903121020 | 63 | 203 | 1.0 | 6.0 | 0.00 | 0.19 | 0.19 | 94 | 1016.0 |
| 20260903120017 | 62 | 341 | 1.0 | 3.0 | 0.00 | 0.19 | 0.19 | 94 | 1016.1 |
| 20260903115017 | 62 | 211 | 1.0 | 6.0 | 0.00 | 0.19 | 0.19 | 93 | 1016.1 |
| 20260903114018 | 62 | 196 | 1.0 | 6.0 | 0.00 | 0.19 | 0.19 | 93 | 1016.0 |
| 20260903113018 | 62 | 270 | 1.0 | 5.0 | 0.00 | 0.19 | 0.19 | 93 | 1015.9 |
| 20260903112021 | 63 | 359 | 0.0 | 3.0 | 0.00 | 0.19 | 0.19 | 93 | 1016.0 |
| 20260903111018 | 63 | 225 | 0.0 | 4.0 | 0.00 | 0.19 | 0.19 | 93 | 1015.9 |
| 20260903110038 | 62 | 251 | 0.0 | 2.0 | 0.00 | 0.19 | 0.19 | 93 | 1015.9 |
| 20260903105018 | 62 | 276 | 0.0 | 2.0 | 0.00 | 0.19 | 0.19 | 92 | 1016.0 |
| 20260903104018 | 62 | 263 | 0.0 | 3.0 | 0.01 | 0.19 | 0.19 | 92 | 1016.2 |
| 20260903103038 | 62 | 236 | 0.0 | 3.0 | 0.03 | 0.18 | 0.18 | 92 | 1016.3 |
| 20260903102039 | 62 | 231 | 0.0 | 1.0 | 0.10 | 0.18 | 0.18 | 91 | 1016.3 |
| 20260903101100 | 62 | 232 | 0.0 | 2.0 | 0.16 | 0.18 | 0.18 | 91 | 1016.3 |
| 20260903100019 | 62 | 219 | 1.0 | 3.0 | 0.18 | 0.18 | 0.18 | 90 | 1016.4 |
| 20260903095019 | 63 | 206 | 0.0 | 3.0 | 0.18 | 0.18 | 0.18 | 90 | 1016.6 |
| 20260903094019 | 64 | 244 | 1.0 | 5.0 | 0.18 | 0.18 | 0.18 | 90 | 1016.6 |
| 20260903093019 | 64 | 31 | 0.0 | 1.0 | 0.15 | 0.15 | 0.15 | 90 | 1016.7 |
| 20260903092016 | 64 | 259 | 1.0 | 2.0 | 0.09 | 0.09 | 0.09 | 90 | 1017.1 |
| 20260903091017 | 64 | 275 | 2.0 | 4.0 | 0.02 | 0.02 | 0.02 | 89 | 1016.9 |
| 20260903090017 | 64 | 220 | 0.0 | 2.0 | 0.00 | 0.00 | 0.00 | 90 | 1016.2 |
| 20260903085020 | 64 | 338 | 0.0 | 2.0 | 0.00 | 0.00 | 0.00 | 90 | 1016.0 |
| 20260903084040 | 65 | 357 | 0.0 | 2.0 | 0.00 | 0.00 | 0.00 | 90 | 1016.1 |
| 20260903083017 | 64 | 307 | 0.0 | 2.0 | 0.00 | 0.00 | 0.00 | 90 | 1016.2 |
| 20260903082059 | 65 | 333 | 0.0 | 2.0 | 0.00 | 0.00 | 0.00 | 90 | 1016.2 |
| 20260903081018 | 65 | 359 | 0.0 | 2.0 | 0.00 | 0.00 | 0.00 | 91 | 1016.6 |
| 20260903080018 | 65 | 285 | 1.0 | 4.0 | 0.00 | 0.00 | 0.00 | 91 | 1016.7 |
| 20260903075019 | 64 | 212 | 1.0 | 4.0 | 0.00 | 0.00 | 0.00 | 91 | 1016.6 |
| 20260903074019 | 64 | 360 | 0.0 | 2.0 | 0.00 | 0.00 | 0.00 | 90 | 1016.5 |
| 20260903073059 | 64 | 344 | 0.0 | 2.0 | 0.00 | 0.00 | 0.00 | 90 | 1016.6 |
| 20260903072018 | 64 | 352 | 0.0 | 2.0 | 0.00 | 0.00 | 0.00 | 89 | 1016.7 |
| 20260903071020 | 64 | 82 | 0.0 | 3.0 | 0.00 | 0.00 | 0.00 | 90 | 1016.7 |
| 20260903070039 | 64 | 10 | 0.0 | 3.0 | 0.00 | 0.00 | 0.00 | 90 | 1017.1 |
| 20260903065019 | 64 | 353 | 0.0 | 4.0 | 0.00 | 0.00 | 0.00 | 92 | 1017.5 |
| 20260903064017 | 64 | 224 | 1.0 | 2.0 | 0.00 | 0.00 | 0.00 | 93 | 1017.9 |
| 20260903063017 | 63 | 200 | 0.0 | 3.0 | 0.00 | 0.00 | 0.00 | 93 | 1018.1 |
| 20260903062020 | 63 | 234 | 0.0 | 2.0 | 0.00 | 0.00 | 0.00 | 94 | 1018.2 |
| 20260903061020 | 63 | 305 | 0.0 | 1.0 | 0.00 | 0.00 | 0.00 | 94 | 1018.2 |
| 20260903060020 | 63 | 327 | 0.0 | 1.0 | 0.00 | 0.00 | 0.00 | 94 | 1018.3 |
| 20260903055020 | 63 | 327 | 0.0 | 1.0 | 0.00 | 0.00 | 0.00 | 94 | 1018.5 |
| 20260903054018 | 63 | 354 | 0.0 | 1.0 | 0.00 | 0.00 | 0.00 | 94 | 1018.5 |
| 20260903053018 | 63 | 359 | 0.0 | 1.0 | 0.00 | 0.00 | 0.00 | 94 | 1018.5 |
| 20260903052017 | 63 | 119 | 0.0 | 2.0 | 0.00 | 0.00 | 0.00 | 94 | 1018.6 |
| 20260903051018 | 62 | 329 | 0.0 | 1.0 | 0.00 | 0.00 | 0.00 | 94 | 1018.5 |
| 20260903050018 | 62 | 295 | 0.0 | 1.0 | 0.00 | 0.00 | 0.00 | 94 | 1018.6 |
| 20260903045021 | 62 | 329 | 0.0 | 1.0 | 0.00 | 0.00 | 0.00 | 94 | 1018.8 |
| 20260903044018 | 62 | 11 | 0.0 | 1.0 | 0.00 | 0.00 | 0.00 | 94 | 1018.9 |
| 20260903043019 | 62 | 356 | 0.0 | 1.0 | 0.00 | 0.00 | 0.00 | 93 | 1019.0 |
| 20260903042039 | 62 | 9 | 0.0 | 2.0 | 0.00 | 0.00 | 0.00 | 93 | 1018.9 |
| 20260903041019 | 62 | 26 | 0.0 | 1.0 | 0.00 | 0.00 | 0.00 | 93 | 1019.1 |
| 20260903040019 | 62 | 23 | 0.0 | 1.0 | 0.00 | 0.00 | 0.00 | 93 | 1019.5 |
| 20260903035019 | 62 | 11 | 0.0 | 1.0 | 0.00 | 0.00 | 0.00 | 93 | 1019.6 |
| 20260903034019 | 62 | 339 | 0.0 | 1.0 | 0.00 | 0.00 | 0.00 | 93 | 1019.7 |
| 20260903033019 | 62 | 328 | 0.0 | 1.0 | 0.00 | 0.00 | 0.00 | 93 | 1019.7 |
| 20260903032019 | 62 | 348 | 0.0 | 1.0 | 0.00 | 0.00 | 0.00 | 93 | 1019.8 |
| 20260903031016 | 62 | 296 | 0.0 | 1.0 | 0.00 | 0.00 | 0.00 | 93 | 1019.9 |
| 20260903030017 | 61 | 309 | 0.0 | 1.0 | 0.00 | 0.00 | 0.00 | 93 | 1019.7 |
| 20260903025017 | 61 | 321 | 0.0 | 1.0 | 0.00 | 0.00 | 0.00 | 93 | 1019.8 |
| 20260903024020 | 61 | 318 | 0.0 | 1.0 | 0.00 | 0.00 | 0.00 | 92 | 1019.7 |
| 20260903023020 | 62 | 318 | 0.0 | 1.0 | 0.00 | 0.00 | 0.00 | 92 | 1019.9 |
| 20260903022038 | 62 | 2 | 0.0 | 1.0 | 0.00 | 0.00 | 0.00 | 92 | 1020.1 |
| 20260903021018 | 62 | 323 | 0.0 | 1.0 | 0.00 | 0.00 | 0.00 | 92 | 1020.2 |
| 20260903020018 | 62 | 352 | 0.0 | 0.0 | 0.00 | 0.00 | 0.00 | 92 | 1020.3 |
| 20260903015018 | 62 | 336 | 0.0 | 1.0 | 0.00 | 0.00 | 0.00 | 92 | 1020.3 |
| 20260903014039 | 62 | 340 | 0.0 | 1.0 | 0.00 | 0.00 | 0.00 | 92 | 1020.2 |
| 20260903013039 | 62 | 341 | 0.0 | 2.0 | 0.00 | 0.00 | 0.00 | 92 | 1020.1 |
| 20260903012018 | 61 | 349 | 0.0 | 1.0 | 0.00 | 0.00 | 0.00 | 92 | 1019.9 |
| 20260903011018 | 61 | 343 | 0.0 | 1.0 | 0.00 | 0.00 | 0.00 | 92 | 1019.9 |
| 20260903010019 | 61 | 339 | 0.0 | 1.0 | 0.00 | 0.00 | 0.00 | 91 | 1020.0 |